Location: Gorze? G�rny
(49.8500°N, 19.5000°E)
Time: 04:30:38
(UTC+00:00)

Cosmos 2278 Rocket - Pass Details

Date: 13 May 2021
Orbit: 841 x 845 km, 71.0° (Epoch: 20 June)

Event Time Altitude Azimuth Distance (km) Brightness Sun altitude
Rises 21:34:41 0° 252° (WSW) 3,393 5.3 -20.1°
Reaches altitude 10° 21:37:37 10° 267° (W) 2,462 4.8 -20.2°
Maximum altitude 21:42:05 24° 319° (NW) 1,702 4.5 -20.4°
Drops below altitude 10° 21:46:36 10° 12° (NNE) 2,471 5.6 -20.6°
Sets 21:49:34 0° 27° (NNE) 3,410 6.2 -20.7°
